This is the latest recevied weather packets stored in our database for station/object IZ8GMP-13. If no packets are shown the sender has not sent any weather packets the latest 10 day(s).
| Time | Temp. | Humidity | Pressure | Rain* | Wind** | Luminosity | Snow |
|---|---|---|---|---|---|---|---|
| 1777347283 | 16.11° C | 71% | 1015.7 hPa | - | - | - | - |
| 1777346079 | 16.11° C | 73% | 1015.8 hPa | - | - | - | - |
| 1777344876 | 16.11° C | 74% | 1015.9 hPa | - | - | - | - |
| 1777343672 | 16.11° C | 72% | 1015.9 hPa | - | - | - | - |
| 1777342469 | 16.11° C | 71% | 1016.1 hPa | - | - | - | - |
| 1777341265 | 16.11° C | 70% | 1015.9 hPa | - | - | - | - |
| 1777340062 | 16.11° C | 73% | 1016 hPa | - | - | - | - |
| 1777338858 | 16.11° C | 67% | 1016.3 hPa | - | - | - | - |
| 1777336451 | 15° C | 56% | 1016.1 hPa | - | - | - | - |
| 1777334044 | 15.56° C | 52% | 1016.3 hPa | - | - | - | - |
| 1777331638 | 16.67° C | 54% | 1016.5 hPa | - | - | - | - |
| 1777330434 | 16.67° C | 46% | 1016.6 hPa | - | - | - | - |
| 1777329231 | 16.67° C | 52% | 1016.9 hPa | - | - | - | - |
| 1777326824 | 16.11° C | 60% | 1017.1 hPa | - | - | - | - |
| 1777324417 | 16.11° C | 62% | 1016.9 hPa | - | - | - | - |
| 1777323213 | 16.11° C | 66% | 1017.1 hPa | - | - | - | - |
| 1777322010 | 16.11° C | 67% | 1017.1 hPa | - | - | - | - |
| 1777320806 | 16.67° C | 69% | 1017.2 hPa | - | - | - | - |
| 1777319603 | 16.67° C | 70% | 1017.3 hPa | - | - | - | - |
| 1777318399 | 16.67° C | 73% | 1017.3 hPa | - | - | - | - |
| 1777317196 | 16.67° C | 77% | 1017.2 hPa | - | - | - | - |
| 1777315992 | 16.67° C | 75% | 1017.1 hPa | - | - | - | - |
| 1777314789 | 17.22° C | 76% | 1017 hPa | - | - | - | - |
| 1777312382 | 17.22° C | 75% | 1016.7 hPa | - | - | - | - |
| 1777309975 | 18.33° C | 70% | 1016.6 hPa | - | - | - | - |
* Rain since midnight (hover to see other rain measurements)
** Current wind speed in m/s (hover to see current wind gust speed)